User: anonymous   Login
Location: Unspecified
(0.0000°N, 0.0000°E)
Time: 01:27:43
(UTC+02:00)
Language:

ATLAS 5 CENTAUR R/B - Orbit

View from above orbital plane
View from above orbital plane
View from above satellite
View from above satellite

Ground track
Ground track

The orbit data is extracted from the following two-line orbital elements,

1 31702U 07027B   18108.89595592 0.00000000  00000-0  00000-0 0    02
2 31702  63.3748  51.7900 0320000   6.4696 353.5304 14.18626848    05
Epoch (UTC): 18 April 2018 21:30:10
Eccentricity: 0.0320000
inclination: 63.3748°
perigee height: 599 km
apogee height: 1060 km
right ascension of ascending node: 51.7900°
argument of perigee: 6.4696°
revolutions per day: 14.18626848
mean anomaly at epoch: 353.5304°
orbit number at epoch: 0

The dashed part of the orbit path shows where the satellite is in the earth's shadow,  

DLR